Location: Lecco
(45.8566°N, 9.3977°E)
Time: 23:51:47
(UTC+02:00)

S-56A Canister/Altair - Pass Details

Date: 24 July 2019
Orbit: 633 x 2499 km, 38.9° (Epoch: 23 August)

Event Time Altitude Azimuth Distance (km) Brightness Sun altitude
Rises 10:13:54 0° 266° (W) 5,369 11.4 42.5°
Reaches altitude 10° 10:17:07 10° 264° (W) 4,569 11.2 43.1°
Maximum altitude 10:30:19 64° 187° (S) 2,635 11.1 45.2°
Drops below altitude 10° 10:45:07 10° 111° (ESE) 5,067 12.7 47.6°
Sets 10:48:54 0° 109° (ESE) 5,965 12.7 48.2°
